This is the latest recevied weather packets stored in our database for station/object W4FXD. If no packets are shown the sender has not sent any weather packets the latest 10 day(s).
| Time | Temp. | Humidity | Pressure | Rain* | Wind** | Luminosity | Snow |
|---|---|---|---|---|---|---|---|
| 1777592614 | 16.11° C | 52% | 1013.8 hPa | 0 mm | - | 22 W/m² | - |
| 1777592310 | 16.11° C | 52% | 1013.9 hPa | 0 mm | - | 33 W/m² | - |
| 1777592006 | 16.11° C | 49% | 1013.9 hPa | 0 mm | - | 30 W/m² | - |
| 1777591703 | 16.11° C | 49% | 1014 hPa | 0 mm | - | 35 W/m² | - |
| 1777591398 | 16.67° C | 47% | 1013.8 hPa | 0 mm | - | 26 W/m² | - |
| 1777591095 | 16.67° C | 46% | 1014.1 hPa | 0 mm | - | 28 W/m² | - |
| 1777590790 | 16.67° C | 47% | 1013.8 hPa | 0 mm | - | 39 W/m² | - |
| 1777590486 | 16.67° C | 46% | 1013.8 hPa | 0 mm | - | 43 W/m² | - |
| 1777590183 | 16.67° C | 48% | 1014 hPa | 0 mm | - | 42 W/m² | - |
| 1777589880 | 17.22° C | 46% | 1014 hPa | 0 mm | - | 33 W/m² | - |
| 1777589575 | 17.22° C | 47% | 1014 hPa | 0 mm | - | 29 W/m² | - |
| 1777589274 | 17.22° C | 47% | 1014 hPa | 0 mm | - | 45 W/m² | - |
| 1777588971 | 17.22° C | 48% | 1014 hPa | 0 mm | - | 37 W/m² | - |
| 1777588666 | 17.22° C | 49% | 1014 hPa | 0 mm | - | 50 W/m² | - |
| 1777588362 | 17.22° C | 48% | 1014 hPa | 0 mm | - | 45 W/m² | - |
| 1777588058 | 17.22° C | 46% | 1013.8 hPa | 0 mm | - | 42 W/m² | - |
| 1777587754 | 17.22° C | 46% | 1013.9 hPa | 0 mm | - | 55 W/m² | - |
| 1777587453 | 17.78° C | 45% | 1014 hPa | 0 mm | - | 48 W/m² | - |
| 1777587151 | 17.78° C | 46% | 1014 hPa | 0 mm | - | 56 W/m² | - |
| 1777586845 | 17.78° C | 50% | 1013.9 hPa | 0 mm | - | 59 W/m² | - |
| 1777586542 | 17.78° C | 46% | 1013.8 hPa | 0 mm | - | 47 W/m² | - |
| 1777586237 | 17.78° C | 46% | 1013.9 hPa | 0 mm | - | 53 W/m² | - |
| 1777585935 | 17.78° C | 47% | 1013.8 hPa | 0 mm | - | 58 W/m² | - |
| 1777585630 | 17.78° C | 47% | 1013.5 hPa | 0 mm | - | 59 W/m² | - |
| 1777585325 | 17.78° C | 47% | 1013.7 hPa | 0 mm | - | 46 W/m² | - |
* Rain latest hour (hover to see other rain measurements)
** Current wind speed in m/s (hover to see current wind gust speed)